Tracking 35237 objects as of 6-Sep-2026
HD Live streaming from Space Station
objects crossing your sky now

MK-1TS


MK-1TS is no longer on orbit


NORAD ID: 28507
Int'l Code: 2004-052C
Launch date: December 24, 2004
Source: Commonwealth of Independent States (former USSR) (CIS)
Launch site: PLESETSK MISSILE AND SPACE COMPLEX (PKMTR)
Decay date: 2005-09-30
Your satellite tracking list
Your tracking list is empty




NASA's NSSDC Master Catalog

Two Line Element Set (TLE):
1 28507U 04052C   05273.50139101  .22182229 -17415-5  46949-3 0  9997
2 28507 082.5134 355.2950 0005362 353.9155 006.3295 16.46721131 43658
Source of the keplerian elements: AFSPC